Stations météo

Publicité
Geneve-Cointrin, Suisse (6700): Température de l'air & dewpoint: 15.10.2019 07:00:00 - 21.10.2019 07:00:00 (CEST)Geneve-Cointrin, Suisse (6700): Température de l'air 5cm: 15.10.2019 07:00:00 - 21.10.2019 07:00:00 (CEST)Geneve-Cointrin, Suisse (6700): Vitesse du vent & gusts: 15.10.2019 07:00:00 - 21.10.2019 07:00:00 (CEST)Geneve-Cointrin, Suisse (6700): Direction du vent: 15.10.2019 07:00:00 - 21.10.2019 07:00:00 (CEST)Geneve-Cointrin, Suisse (6700): reduced air pressure: 15.10.2019 07:00:00 - 21.10.2019 07:00:00 (CEST)Geneve-Cointrin, Suisse (6700): visibility: 15.10.2019 07:00:00 - 21.10.2019 07:00:00 (CEST)Geneve-Cointrin, Suisse (6700): Ensoleillement: 15.10.2019 07:00:00 - 21.10.2019 07:00:00 (CEST)Geneve-Cointrin, Suisse (6700): Quantités de précipitations: 15.10.2019 07:00:00 - 21.10.2019 07:00:00 (CEST)
Date & Time tt [°C] td [°C] tt 5cm [°C] ff [km/h] ff [knt] fx [km/h] fx [knt] dd ppp [hPa] vv [km] sd [min] rr [mm]
21.10.2019 07:00:00 14,0 13,2 13,3 5 3 13 7 WNW 1015,4 - 0 0,0
21.10.2019 06:00:00 14,2 13,1 13,3 8 4 18 10 S 1015,1 - 0 0,2
21.10.2019 05:00:00 14,2 13,0 13,3 13 7 25 14 SSW 1015,0 - 0 2,2
21.10.2019 04:00:00 14,2 13,6 13,5 4 2 15 8 WSW 1014,2 - 0 3,5
21.10.2019 03:00:00 14,3 13,2 13,4 12 6 21 11 SSW 1014,1 - 0 2,9
21.10.2019 02:00:00 14,2 13,1 13,3 13 7 21 12 SW 1013,8 - 0 2,6
21.10.2019 01:00:00 13,8 13,3 13,1 6 3 15 8 SW 1012,8 - 0 2,7
21.10.2019 00:00:00 13,7 13,2 12,9 5 3 12 7 ENE 1010,9 - 0 0,5
20.10.2019 23:00:00 13,9 12,8 13,0 4 2 12 7 N 1011,4 8 0 0,3
20.10.2019 22:00:00 14,1 12,9 13,2 11 6 21 12 ENE 1010,0 - 0 0,0
20.10.2019 21:00:00 13,9 12,7 13,3 8 4 16 8 W 1010,2 - 0 0,0
20.10.2019 20:00:00 13,9 12,4 12,4 6 3 13 7 NW 1008,2 12 0 0,0
20.10.2019 19:00:00 14,5 12,5 13,1 4 2 10 5 WSW 1007,6 - 0 0,0
20.10.2019 18:00:00 14,7 12,3 13,8 5 3 9 5 WNW 1007,3 - 0 0,0
20.10.2019 17:00:00 15,1 12,1 14,9 5 3 14 8 N 1006,7 10 4 0,0
20.10.2019 16:00:00 15,1 12,0 16,0 10 5 18 10 NE 1006,8 - 14 0,0
20.10.2019 15:00:00 15,9 12,6 18,5 9 5 19 10 NE 1006,9 - 33 0,0
20.10.2019 14:00:00 15,0 11,5 19,0 6 3 17 9 ENE 1007,9 12 13 0,0
20.10.2019 13:00:00 14,7 11,8 17,5 8 4 14 8 ENE 1008,2 - 0 0,0
20.10.2019 12:00:00 14,1 11,7 16,1 6 3 14 8 NE 1008,8 - 0 0,0
20.10.2019 11:00:00 14,1 12,4 15,4 8 4 14 8 ENE 1008,9 10 0 0,0
20.10.2019 10:00:00 13,5 12,4 13,5 6 3 10 6 ENE 1009,0 - 0 0,0
20.10.2019 09:00:00 13,3 12,4 12,9 5 3 11 6 NNE 1008,6 - 0 0,0
20.10.2019 08:00:00 13,2 12,5 12,6 4 2 7 4 NNE 1008,3 6 0 0,0
20.10.2019 07:00:00 13,3 12,5 12,6 4 2 7 4 N 1008,6 - 0 0,0
20.10.2019 06:00:00 13,1 12,6 12,3 4 2 10 5 NE 1008,6 - 0 0,0
20.10.2019 05:00:00 13,2 12,7 12,6 5 3 7 4 NE 1008,4 - 0 0,0
20.10.2019 04:00:00 13,2 12,6 12,8 2 1 6 3 NW 1008,6 - 0 0,0
20.10.2019 03:00:00 13,1 12,5 12,7 2 1 5 3 NE 1008,6 - 0 0,0
20.10.2019 02:00:00 13,1 12,5 12,7 3 2 6 3 N 1008,7 - 0 0,0
20.10.2019 01:00:00 13,2 12,6 12,8 2 1 7 4 NW 1008,7 - 0 0,0
20.10.2019 00:00:00 13,2 12,5 12,4 6 3 8 5 N 1008,5 - 0 0,0
19.10.2019 23:00:00 13,4 12,5 12,8 3 2 13 7 E 1008,9 11 0 0,1
19.10.2019 22:00:00 13,5 12,9 12,9 3 1 9 5 SW 1009,3 - 0 0,2
19.10.2019 21:00:00 13,5 12,9 12,9 5 3 9 5 N 1008,9 - 0 0,9
19.10.2019 20:00:00 13,5 12,9 12,8 4 2 13 7 SE 1009,2 16 0 1,4
19.10.2019 19:00:00 13,6 12,8 12,7 1 1 11 6 N 1009,0 - 0 0,5
19.10.2019 18:00:00 13,9 13,1 13,3 5 3 11 6 NNW 1008,9 - 0 0,6
19.10.2019 17:00:00 14,2 13,0 13,6 4 2 17 9 NW 1008,5 20 0 0,6
19.10.2019 16:00:00 14,6 13,0 14,4 6 4 18 10 N 1008,5 - 0 0,0
19.10.2019 15:00:00 14,7 12,9 15,6 10 5 19 10 NE 1008,4 - 0 0,0
19.10.2019 14:00:00 14,4 12,8 14,9 10 5 21 12 NE 1009,1 25 0 0,0
19.10.2019 13:00:00 14,5 13,5 14,6 11 6 19 10 NNE 1009,6 - 0 0,7
19.10.2019 12:00:00 13,9 13,1 14,1 9 5 16 9 NE 1010,7 - 0 1,2
19.10.2019 11:00:00 13,7 13,0 13,4 8 5 16 9 NNE 1010,9 75 0 4,7
19.10.2019 10:00:00 13,6 12,8 13,0 5 3 10 5 NNW 1011,4 - 0 1,8
19.10.2019 09:00:00 13,4 12,8 12,9 6 3 16 9 NNW 1011,4 - 0 0,8
19.10.2019 08:00:00 13,4 12,8 12,9 4 2 9 5 NW 1011,4 3,0 0 5,9
19.10.2019 07:00:00 13,4 12,9 12,8 3 2 9 5 NW 1011,1 - 0 6,5
19.10.2019 06:00:00 13,3 12,8 12,6 3 2 6 3 ENE 1010,7 - 0 0,6
19.10.2019 05:00:00 13,2 12,8 12,8 2 1 8 4 WNW 1011,0 - 0 0,4
19.10.2019 04:00:00 13,2 12,7 12,3 3 2 6 3 SSE 1011,4 - 0 0,0
19.10.2019 03:00:00 13,2 12,8 12,0 3 1 8 4 NNW 1011,7 - 0 0,0
19.10.2019 02:00:00 13,6 13,1 12,3 4 2 13 7 N 1011,9 - 0 0,0
19.10.2019 01:00:00 13,9 13,0 12,8 5 3 13 7 NNE 1012,4 - 0 0,1
19.10.2019 00:00:00 13,6 13,1 11,8 5 3 13 7 NNE 1012,5 - 0 0,0
18.10.2019 23:00:00 14,8 13,0 13,2 7 4 21 12 WSW 1012,9 18 0 0,2
18.10.2019 22:00:00 14,5 13,8 13,6 3 1 13 7 ESE 1013,0 - 0 0,0
18.10.2019 21:00:00 14,4 13,7 13,7 7 4 12 6 WNW 1013,0 - 0 0,5
18.10.2019 20:00:00 14,8 13,7 13,9 10 6 19 11 W 1013,4 20 0 0,9
18.10.2019 19:00:00 15,5 13,1 13,9 9 5 20 11 WSW 1012,9 - 0 0,4
18.10.2019 18:00:00 15,8 13,4 14,3 11 6 25 13 W 1013,5 - 0 0,2
18.10.2019 17:00:00 17,1 12,1 16,3 12 7 23 13 W 1013,0 25 0 0,0
18.10.2019 16:00:00 18,1 11,9 17,8 19 10 32 17 SW 1012,9 - 0 0,0
18.10.2019 15:00:00 18,1 11,9 19,1 20 11 28 15 SSW 1013,2 - 2 0,0
18.10.2019 14:00:00 17,4 12,7 20,3 9 5 19 10 SW 1014,2 30 17 0,0
18.10.2019 13:00:00 15,9 12,5 16,6 11 6 21 11 WSW 1015,0 - 5 0,0
18.10.2019 12:00:00 15,7 12,5 15,7 7 4 17 9 W 1015,5 - 0 0,0
18.10.2019 11:00:00 14,9 12,2 15,5 8 4 15 8 WSW 1015,5 20 0 0,0
18.10.2019 10:00:00 13,4 12,2 12,8 4 2 10 5 NW 1015,9 - 0 0,2
18.10.2019 09:00:00 12,7 12,2 12,1 3 1 13 7 SSW 1015,7 - 0 0,8
18.10.2019 08:00:00 12,6 12,0 11,9 8 4 16 8 WSW 1015,3 7 0 2,3
18.10.2019 07:00:00 11,4 11,0 9,7 4 2 6 3 NE 1014,8 - 0 0,0
18.10.2019 06:00:00 11,0 10,8 9,1 0 0 5 3 NW 1015,5 - 0 0,0
18.10.2019 05:00:00 12,4 11,9 10,4 4 2 6 3 SE 1015,6 - 0 0,0
18.10.2019 04:00:00 12,9 12,5 12,1 1 0 8 5 WNW 1015,8 - 0 0,0
18.10.2019 03:00:00 12,8 12,4 11,9 7 4 9 5 ESE 1016,2 - 0 0,0
18.10.2019 02:00:00 13,0 12,6 11,3 3 2 6 4 NNE 1016,5 - 0 0,0
18.10.2019 01:00:00 13,1 12,7 11,7 2 1 7 4 NNE 1016,7 - 0 0,0
18.10.2019 00:00:00 13,6 13,2 12,9 3 2 12 7 ESE 1017,2 - 0 0,1
17.10.2019 23:00:00 13,8 13,4 12,9 2 1 11 6 S 1017,4 8 0 0,4
17.10.2019 22:00:00 13,8 13,4 13,1 2 1 5 3 N 1017,0 - 0 0,2
17.10.2019 21:00:00 13,9 13,3 13,1 2 1 6 4 N 1016,9 - 0 0,2
17.10.2019 20:00:00 14,0 13,4 13,2 3 1 7 4 N 1016,9 14 0 0,2
17.10.2019 19:00:00 14,2 13,6 13,4 2 1 14 7 ENE 1016,4 - 0 0,3
17.10.2019 18:00:00 14,4 13,6 13,8 8 5 22 12 S 1015,9 - 0 0,2
17.10.2019 17:00:00 16,1 12,1 14,1 18 10 29 16 SW 1015,5 12 0 0,2
17.10.2019 16:00:00 17,3 10,8 16,1 13 7 23 12 SW 1014,9 - 0 0,0
17.10.2019 15:00:00 18,3 9,6 19,1 17 9 24 13 SSW 1014,7 - 1 0,0
17.10.2019 14:00:00 18,6 9,6 19,4 14 7 20 11 SSW 1014,9 45 0 0,0
17.10.2019 13:00:00 17,5 9,0 20,8 6 3 12 7 ENE 1015,4 - 42 0,0
17.10.2019 12:00:00 16,3 7,2 21,9 4 2 13 7 S 1016,1 - 56 0,0
17.10.2019 11:00:00 15,1 8,2 20,2 2 1 10 5 WNW 1016,7 50 60 0,0
17.10.2019 10:00:00 12,7 7,9 16,5 3 2 8 4 WSW 1017,5 - 45 0,0
17.10.2019 09:00:00 10,5 8,5 9,5 3 2 10 6 SW 1017,7 - 1 0,0
17.10.2019 08:00:00 9,6 8,0 7,5 3 1 8 4 W 1017,3 50 0 0,0
17.10.2019 07:00:00 9,1 8,0 7,0 4 2 9 5 N 1017,3 - 0 0,0
17.10.2019 06:00:00 9,5 8,6 6,9 3 1 12 6 N 1017,8 - 0 0,0
17.10.2019 05:00:00 10,8 9,0 9,5 1 1 8 4 N 1017,7 - 0 0,0
17.10.2019 04:00:00 10,6 9,0 9,6 2 1 11 6 NNE 1018,0 - 0 0,0
17.10.2019 03:00:00 10,4 8,8 9,5 5 3 9 5 WNW 1017,9 - 0 0,0
17.10.2019 02:00:00 10,0 8,4 9,1 4 2 8 4 WNW 1017,7 - 0 0,0
17.10.2019 01:00:00 9,7 8,2 8,4 1 1 9 5 ENE 1017,5 - 0 0,0
17.10.2019 00:00:00 9,3 7,7 8,0 1 1 9 5 N 1017,7 - 0 0,0
16.10.2019 23:00:00 9,6 7,9 7,2 3 1 7 4 SSW 1017,4 50 0 0,0
16.10.2019 22:00:00 10,1 7,9 7,3 3 2 8 4 NW 1017,1 - 0 0,0
16.10.2019 21:00:00 9,9 7,9 6,3 3 2 7 4 N 1017,1 - 0 0,0
16.10.2019 20:00:00 11,3 8,4 7,2 3 2 5 3 NNW 1016,4 60 0 0,0
16.10.2019 19:00:00 13,3 8,0 9,1 2 1 11 6 NW 1015,6 - 7 0,0
16.10.2019 18:00:00 16,4 7,0 16,5 6 3 16 9 WSW 1014,7 - 60 0,0
16.10.2019 17:00:00 17,4 6,5 18,8 10 6 26 14 WSW 1015,1 60 60 0,0
16.10.2019 16:00:00 17,2 6,8 19,7 13 7 22 12 WSW 1015,6 - 60 0,0
16.10.2019 15:00:00 15,7 5,9 19,3 15 8 25 13 SW 1016,3 - 60 0,0
16.10.2019 14:00:00 14,9 7,5 18,6 11 6 22 12 WSW 1017,0 50 60 0,0
16.10.2019 13:00:00 14,0 5,9 18,4 16 9 24 13 SW 1017,8 - 60 0,0
16.10.2019 12:00:00 12,5 6,6 17,8 2 1 10 5 ESE 1018,6 - 60 0,0
16.10.2019 11:00:00 11,0 6,5 15,8 3 2 13 7 WSW 1019,1 50 60 0,0
16.10.2019 10:00:00 9,6 6,7 11,6 7 4 12 6 SW 1019,8 - 60 0,0
16.10.2019 09:00:00 7,4 6,5 7,6 5 3 9 5 W 1020,1 - 3 0,0
16.10.2019 08:00:00 6,3 5,6 4,3 5 3 8 4 WNW 1019,8 40 0 0,0
16.10.2019 07:00:00 7,0 6,6 4,2 5 3 11 6 N 1019,6 - 0 0,0
16.10.2019 06:00:00 6,3 5,8 3,3 2 1 9 5 NW 1019,7 - 0 0,0
16.10.2019 05:00:00 6,8 6,5 3,6 2 1 5 3 SE 1019,6 - 0 0,0
16.10.2019 04:00:00 7,5 7,2 4,6 1 1 4 2 N 1019,6 - 0 0,0
16.10.2019 03:00:00 8,6 8,2 7,3 4 2 7 4 ENE 1019,6 - 0 0,0
16.10.2019 02:00:00 8,8 8,4 7,8 4 2 17 9 SSW 1019,5 - 0 0,0
16.10.2019 01:00:00 8,4 7,6 6,6 10 6 16 9 W 1019,5 - 0 0,0
16.10.2019 00:00:00 9,9 8,3 8,9 8 5 16 9 W 1019,3 - 0 0,0
15.10.2019 23:00:00 10,7 7,8 9,0 11 6 18 10 SSW 1018,6 30 0 0,0
15.10.2019 22:00:00 10,3 8,1 9,1 3 2 22 12 W 1017,9 - 0 0,0
15.10.2019 21:00:00 10,9 8,1 9,7 9 5 24 13 W 1017,1 - 0 0,0
15.10.2019 20:00:00 10,6 7,9 9,3 16 9 31 17 S 1016,5 30 0 0,0
15.10.2019 19:00:00 10,1 8,4 9,0 14 8 31 17 S 1015,4 - 0 0,9
15.10.2019 18:00:00 11,1 9,6 10,1 15 8 31 17 SSW 1013,8 - 0 1,0
15.10.2019 17:00:00 12,4 10,6 11,4 16 9 36 19 SSW 1012,4 30 0 0,1
15.10.2019 16:00:00 12,6 10,6 11,9 25 14 40 21 SSW 1011,2 - 0 0,3
15.10.2019 15:00:00 12,9 10,7 12,0 29 15 40 22 SW 1010,4 - 0 0,7
15.10.2019 14:00:00 13,9 12,8 13,6 19 10 27 15 SW 1009,8 10 0 1,2
15.10.2019 13:00:00 13,6 12,6 13,1 10 6 19 10 WSW 1009,9 - 0 0,9
15.10.2019 12:00:00 13,6 12,4 13,2 7 4 18 10 W 1010,2 - 0 0,7
15.10.2019 11:00:00 13,4 12,3 12,7 15 8 27 15 SSW 1010,6 10 0 3,8
15.10.2019 10:00:00 14,3 13,4 13,6 16 9 27 15 SW 1010,3 - 0 6,0
15.10.2019 09:00:00 13,9 13,2 13,0 5 3 17 9 NNE 1008,5 - 0 0,3
15.10.2019 08:00:00 13,6 13,0 12,8 2 1 24 13 SE 1008,6 7 0 3,4
15.10.2019 07:00:00 13,4 12,7 12,7 6 3 11 6 WNW 1008,4 - 0 0,8

tt = Température de l'air
td = dewpoint
tt 5cm = Température de l'air 5cm
ff = Vitesse du vent
fx = gusts
dd = Direction du vent
ppp = reduced air pressure
vv = visibility
sd = Ensoleillement
rr = Quantités de précipitations

stations d'obs. à proximité